カタログに戻る

STARLINK-35512

運用中通信VLEO
NORAD 66330·PAYLOAD·🇺🇸 United States

打ち上げ Nov 6, 2025 から Cape Canaveral Space Force Station

Loading…

次のパス (今後24時間)

TLE

最新Source: CelesTrak SupGP

元期: Sep 14, 2026, 21:19 UTC

1 66330C 25253M   26257.88868056  .00028737  00000+0  10407-2 0  2573
2 66330  42.9996 224.2040 0001373 261.3505 248.4119 15.27567748    11

AllMySatでSTARLINK-35512をリアルタイム追跡

Download on the App Store